This demonstration page uses our WeatherBlox Daily Observations layout. Learn more.

Left ArrowRight Arrow

44.31136, -96.79839

Hourly Observations for June 26, 2019

Temp ( °F °C ) Dew Point ( °F °C ) Humidity (%) Winds ( mph kmh ) Pressure ( in mb ) Visibility ( mi km ) Precip ( " mm )
12:40 am 00:40 Mostly Clear 63 17 54 12 73 73 Calm 29.93 1013 10 16 0.00 0.00
12:56 am 00:56 Clear 62 16.7 55 12.8 78 78 Calm 29.98 1015 10 16 0.00 0.00
1:56 am 01:56 Clear 61 16.1 55 12.8 81 81 SE 7 11 29.99 1016 10 16 0.00 0.00
2:56 am 02:56 Clear 59 15 56 13.3 90 90 Calm 30.00 1016 10 16 0.00 0.00
3:56 am 03:56 Clear 61 16.1 54 12.2 78 78 SE 5 7 29.99 1016 10 16 0.00 0.00
4:56 am 04:56 Mostly Cloudy with Light Rain 62 16.7 55 12.8 78 78 S 7 11 30.01 1016 10 16 0.00 0.03
5:56 am 05:56 Cloudy with Light Rain 61 16.1 56 13.3 84 84 NNE 7 11 30.04 1017 10 16 0.00 0.03
6:13 am 06:13 Cloudy with Nearby Thunderstorms 61 16 55 13 83 83 NW 15 24 30.05 1018 8 13 0.00 0.03
6:17 am 06:17 Cloudy with Nearby Thunderstorms 59 15 57 14 94 94 NW 13 20 30.06 1018 7 11 0.00 0.03
6:28 am 06:28 Cloudy with Rain 59 15 57 14 94 94 NNE 10 17 30.02 1017 5 8 0.00 0.00
6:56 am 06:56 Mostly Cloudy 60 15.6 58 14.4 93 93 ENE 8 13 30.04 1017 10 16 0.00 0.00
7:56 am 07:56 Cloudy 61 16.1 58 14.4 90 90 ESE 8 13 30.05 1018 10 16 0.01 0.25
8:56 am 08:56 Sunny 68 20 60 15.6 76 76 undefined N/A 30.03 1017 10 16 0.01 0.25
9:56 am 09:56 Sunny 71 21.7 60 15.6 68 68 SE 9 15 30.03 1017 10 16 0.00 0.00
10:56 am 10:56 Sunny 74 23.3 61 16.1 64 64 S 8 13 30.01 1016 10 16 0.00 0.00
11:56 am 11:56 Sunny 78 25.6 63 17.2 60 60 S 8 13 30.00 1016 10 16 0.00 0.00
12:56 pm 12:56 Sunny 80 26.7 62 16.7 54 54 S 5 7 30.00 1016 10 16 0.00 0.00
1:56 pm 13:56 Sunny 82 27.8 62 16.7 51 51 Calm 30.00 1016 10 16 0.00 0.00
2:56 pm 14:56 Sunny 84 28.9 64 17.8 51 51 WNW 8 13 30.00 1016 10 16 0.00 0.00
3:56 pm 15:56 Mostly Sunny 85 29.4 66 18.9 53 53 SW 8 13 30.00 1016 10 16 0.00 0.00
4:56 pm 16:56 Sunny 84 28.9 66 18.9 55 55 W 9 15 30.00 1016 10 16 0.00 0.00
6:56 pm 18:56 Sunny 83 28.3 68 20 61 61 S 7 11 29.98 1015 10 16 0.00 0.00
7:56 pm 19:56 Sunny 82 27.8 67 19.4 60 60 SE 3 6 29.98 1015 10 16 0.00 0.00
8:56 pm 20:56 Sunny 81 27.2 66 18.9 61 61 S 6 9 29.98 1015 10 16 0.00 0.00
9:56 pm 21:56 Clear 77 25 65 18.3 66 66 S 5 7 30.01 1016 8 13 0.00 0.00
10:56 pm 22:56 Clear 75 23.9 65 18.3 71 71 SE 6 9 30.02 1017 10 16 0.00 0.00
11:56 pm 23:56 Clear 74 23.3 63 17.2 69 69 SSE 7 11 30.03 1017 10 16 0.00 0.00

Powered by AerisWeather